ROMMA est une association bénévole à but non lucratif. Votre soutien est indispensable : ADHERER à ROMMA ou FAIRE un DON

Briord - (01, Ain)

Bugey (281 m)   Longitude: 05° 29' 13" E   Latitude: 45° 46' 37" N Station partenaire n°15
 

Détail journalier du     <<     >>

Température Precipitation Humidité Pression Vent Dir Rafale Dir. rafale Ensol.
Heure (°C) (mm) (%) (hPa) (km/h) (km/h) (min)
01:00 14.109110231NE15NE0
02:00 14.2090102208NE0
03:00 13.4091102206NNE0
04:00 12.7093102202SE0
05:00 12.3093102206ESE0
06:00 11.8093102205E0
07:00 11.5094102200---0
08:00 12.20.295102303ESE0
09:00 14.6092102306ONO45
10:00 15.9090102406O50
11:00 17.408610241O10O60
12:00 18.408410241ONO15OSO60
13:00 19.907810242O15O50
14:00 22.207410233ONO13ONO60
15:00 23.307110234O19ONO55
16:00 23.207010233O16O5
17:00 25.106810224ONO18ONO40
18:00 24.706510225ONO16NO60
19:00 24.306610224O15O60
20:00 23.107110221O13O60
21:00 21.2079102203OSO15
22:00 18.3087102305NNE0
23:00 16.8090102300---0
minuit 16.0093102300---0

Graphique du 22-08-2019

 

Serveur OMMA